Hourly Weather Abergele

Today, 27 November, Friday

Time Temperature Precipitation Wind Pressure Humidity
00:00 +5°C° 0 mm 1 mps 759 mmHg 93%
01:00 +5°C° 0.1 mm 1 mps 759 mmHg 92%
02:00 +5°C° 0.1 mm 1 mps 758 mmHg 92%
03:00 +5°C° 0.1 mm 1 mps 758 mmHg 91%
04:00 +5°C° 0 mm 1 mps 758 mmHg 90%
05:00 +5°C° 0 mm 1 mps 758 mmHg 90%
06:00 +5°C° 0 mm 1 mps 758 mmHg 90%
07:00 +5°C° 0 mm 1 mps 758 mmHg 90%
08:00 +5°C° 0 mm 1 mps 757 mmHg 89%
09:00 +4°C° 0 mm 2 mps 757 mmHg 89%
10:00 +5°C° 0 mm 2 mps 757 mmHg 85%
11:00 +6°C° 0 mm 2 mps 757 mmHg 81%
12:00 +7°C° 0 mm 2 mps 757 mmHg 77%
13:00 +6°C° 0 mm 2 mps 756 mmHg 80%
14:00 +6°C° 0 mm 2 mps 756 mmHg 82%
15:00 +5°C° 0 mm 2 mps 755 mmHg 85%
16:00 +5°C° 0 mm 2 mps 755 mmHg 87%
17:00 +3°C° 0 mm 3 mps 755 mmHg 90%
18:00 +2°C° 0 mm 3 mps 755 mmHg 92%
19:00 +2°C° 0 mm 3 mps 755 mmHg 94%
20:00 +2°C° 0 mm 3 mps 755 mmHg 95%
21:00 +1°C° 0 mm 3 mps 755 mmHg 96%
22:00 +1°C° 0 mm 3 mps 755 mmHg 96%
23:00 0°C° 0 mm 4 mps 754 mmHg 96%

Tomorrow, 28 November, Saturday

Time Temperature Precipitation Wind Pressure Humidity
00:00 0°C° 0 mm 4 mps 754 mmHg 96%
01:00 0°C° 0 mm 4 mps 754 mmHg 96%
02:00 0°C° 0 mm 4 mps 754 mmHg 96%
03:00 0°C° 0 mm 4 mps 754 mmHg 95%
04:00 0°C° 0 mm 4 mps 754 mmHg 96%
05:00 +1°C° 0 mm 4 mps 754 mmHg 96%
06:00 +1°C° 0 mm 4 mps 754 mmHg 96%
07:00 +3°C° 0 mm 4 mps 754 mmHg 96%
08:00 +3°C° 0 mm 4 mps 754 mmHg 96%
09:00 +4°C° 0 mm 4 mps 755 mmHg 96%
10:00 +4°C° 0.4 mm 4 mps 755 mmHg 96%
11:00 +5°C° 0.4 mm 4 mps 755 mmHg 96%
12:00 +5°C° 0.4 mm 4 mps 755 mmHg 96%
13:00 +6°C° 0.4 mm 4 mps 755 mmHg 96%
14:00 +6°C° 0.4 mm 4 mps 755 mmHg 96%
15:00 +6°C° 0.4 mm 4 mps 755 mmHg 96%
16:00 +7°C° 0.3 mm 3 mps 756 mmHg 96%
17:00 +8°C° 0.3 mm 3 mps 756 mmHg 96%
18:00 +8°C° 0.3 mm 3 mps 757 mmHg 95%
19:00 +8°C° 0 mm 3 mps 757 mmHg 95%
20:00 +8°C° 0 mm 3 mps 757 mmHg 95%
21:00 +8°C° 0 mm 3 mps 758 mmHg 95%
22:00 +8°C° 0.1 mm 3 mps 758 mmHg 95%
23:00 +8°C° 0.1 mm 3 mps 758 mmHg 94%

Day after tomorrow, 29 November, Sunday

Time Temperature Precipitation Wind Pressure Humidity
00:00 +8°C° 0.1 mm 2 mps 759 mmHg 94%
01:00 +8°C° 0 mm 2 mps 759 mmHg 93%
02:00 +7°C° 0 mm 2 mps 759 mmHg 93%
03:00 +7°C° 0 mm 2 mps 759 mmHg 93%
04:00 +7°C° 0 mm 2 mps 759 mmHg 93%
05:00 +7°C° 0 mm 2 mps 760 mmHg 92%
06:00 +7°C° 0 mm 2 mps 760 mmHg 91%
07:00 +7°C° 0 mm 2 mps 760 mmHg 91%
08:00 +7°C° 0 mm 2 mps 760 mmHg 90%
09:00 +8°C° 0 mm 1 mps 760 mmHg 89%
10:00 +9°C° 0 mm 1 mps 761 mmHg 87%
11:00 +11°C° 0 mm 1 mps 761 mmHg 85%
12:00 +12°C° 0 mm 1 mps 761 mmHg 83%
13:00 +11°C° 0 mm 1 mps 761 mmHg 85%
14:00 +11°C° 0 mm 1 mps 761 mmHg 87%
15:00 +10°C° 0 mm 1 mps 761 mmHg 89%
16:00 +10°C° 0 mm 1 mps 761 mmHg 90%
17:00 +9°C° 0 mm 1 mps 761 mmHg 91%
18:00 +7°C° 0 mm 2 mps 761 mmHg 91%
19:00 +7°C° 0 mm 2 mps 761 mmHg 91%
20:00 +7°C° 0 mm 2 mps 762 mmHg 90%
21:00 +6°C° 0 mm 2 mps 762 mmHg 89%
22:00 +7°C° 0 mm 2 mps 762 mmHg 89%
23:00 +7°C° 0 mm 2 mps 762 mmHg 89%

30 November, Monday

Time Temperature Precipitation Wind Pressure Humidity
00:00 +7°C° 0 mm 2 mps 762 mmHg 89%
01:00 +7°C° 0.1 mm 2 mps 762 mmHg 90%
02:00 +7°C° 0.1 mm 2 mps 762 mmHg 90%
03:00 +7°C° 0.1 mm 2 mps 762 mmHg 91%
04:00 +8°C° 0.1 mm 2 mps 762 mmHg 93%
05:00 +8°C° 0.1 mm 2 mps 762 mmHg 94%
06:00 +8°C° 0.1 mm 2 mps 762 mmHg 95%
07:00 +8°C° 0 mm 2 mps 763 mmHg 95%
08:00 +8°C° 0 mm 2 mps 763 mmHg 95%
09:00 +8°C° 0 mm 2 mps 763 mmHg 96%
10:00 +8°C° 0 mm 3 mps 763 mmHg 93%
11:00 +9°C° 0 mm 3 mps 763 mmHg 90%
12:00 +9°C° 0 mm 3 mps 763 mmHg 88%
13:00 +9°C° 0 mm 3 mps 763 mmHg 88%
14:00 +7°C° 0 mm 4 mps 763 mmHg 89%
15:00 +7°C° 0 mm 4 mps 763 mmHg 89%
16:00 +7°C° 0 mm 4 mps 763 mmHg 91%
17:00 +6°C° 0 mm 4 mps 763 mmHg 92%
18:00 +6°C° 0 mm 4 mps 763 mmHg 93%
19:00 +6°C° 0 mm 4 mps 763 mmHg 93%
20:00 +6°C° 0 mm 4 mps 764 mmHg 93%
21:00 +7°C° 0 mm 4 mps 764 mmHg 93%
22:00 +7°C° 0 mm 4 mps 764 mmHg 94%
23:00 +7°C° 0 mm 4 mps 764 mmHg 94%

1 December, Tuesday

Time Temperature Precipitation Wind Pressure Humidity
00:00 +7°C° 0 mm 4 mps 764 mmHg 95%
01:00 +7°C° 0 mm 4 mps 764 mmHg 95%
02:00 +7°C° 0 mm 4 mps 764 mmHg 95%
03:00 +7°C° 0 mm 4 mps 763 mmHg 95%
04:00 +7°C° 0 mm 4 mps 764 mmHg 95%
05:00 +6°C° 0 mm 4 mps 764 mmHg 96%
06:00 +7°C° 0 mm 3 mps 764 mmHg 96%
07:00 +7°C° 0 mm 3 mps 764 mmHg 96%
08:00 +7°C° 0 mm 3 mps 764 mmHg 96%
09:00 +7°C° 0 mm 3 mps 764 mmHg 96%
10:00 +7°C° 0 mm 3 mps 764 mmHg 94%
11:00 +8°C° 0 mm 3 mps 763 mmHg 91%
12:00 +9°C° 0 mm 3 mps 763 mmHg 88%
13:00 +9°C° 0 mm 3 mps 763 mmHg 89%
14:00 +9°C° 0 mm 3 mps 763 mmHg 90%
15:00 +9°C° 0 mm 3 mps 762 mmHg 91%
16:00 +8°C° 0 mm 3 mps 762 mmHg 92%
17:00 +7°C° 0 mm 3 mps 762 mmHg 93%
18:00 +7°C° 0 mm 3 mps 762 mmHg 94%
19:00 +7°C° 0 mm 3 mps 762 mmHg 94%
20:00 +7°C° 0 mm 3 mps 761 mmHg 95%
21:00 +7°C° 0 mm 3 mps 761 mmHg 95%
22:00 +7°C° 0 mm 4 mps 761 mmHg 95%
23:00 +7°C° 0 mm 4 mps 760 mmHg 94%

2 December, Wednesday

Time Temperature Precipitation Wind Pressure Humidity
00:00 +7°C° 0 mm 4 mps 760 mmHg 94%
01:00 +7°C° 0 mm 4 mps 760 mmHg 94%
02:00 +7°C° 0 mm 4 mps 759 mmHg 94%
03:00 +7°C° 0 mm 4 mps 759 mmHg 95%
04:00 +7°C° 0 mm 4 mps 759 mmHg 94%
05:00 +7°C° 0 mm 4 mps 758 mmHg 94%
06:00 +7°C° 0 mm 4 mps 758 mmHg 94%
07:00 +7°C° 0 mm 4 mps 758 mmHg 94%
08:00 +8°C° 0 mm 4 mps 758 mmHg 95%
09:00 +9°C° 0 mm 3 mps 758 mmHg 95%
10:00 +9°C° 0.3 mm 3 mps 757 mmHg 95%
11:00 +9°C° 0.3 mm 3 mps 757 mmHg 94%
12:00 +8°C° 0.3 mm 3 mps 757 mmHg 94%
13:00 +8°C° 0.1 mm 3 mps 756 mmHg 94%
14:00 +8°C° 0.1 mm 3 mps 756 mmHg 93%
15:00 +8°C° 0.1 mm 2 mps 755 mmHg 92%
16:00 +7°C° 0 mm 2 mps 755 mmHg 93%
17:00 +7°C° 0 mm 2 mps 755 mmHg 93%
18:00 +7°C° 0 mm 2 mps 754 mmHg 93%
19:00 +7°C° 0 mm 3 mps 754 mmHg 92%
20:00 +6°C° 0 mm 4 mps 754 mmHg 90%
21:00 +6°C° 0 mm 4 mps 754 mmHg 89%
22:00 +6°C° 0 mm 4 mps 753 mmHg 88%
23:00 +5°C° 0 mm 4 mps 753 mmHg 88%
Show more

We Need Your Consent

Meteoprog and our Service Providers may store and access personal data such as cookies, device identifiers or other similar technologies on your device and process such data to personalise content and ads, as well as provide social media features and to analyse the traffic.

  • Store and/or access information on your device

    Cookies, device identifiers or other information can be stored or accessed on your device for the purposes indicated above.

  • Personalised ads and content, ad and content measurement, audience insights, and products development

    Ads and content can be personalised based on a profile. More data can be added to better personalise ads and content. Ad and content performance can be measured. Insights about the audience who saw the ads and content can be derived. Such data can be used to develop or improve user’s experience, systems and software.

By clicking ‘I Agree’ you will allow the use of indicated cookies, device identifiers, web beacons or other similar technologies. Your settings can be changed in the browser on your device.

For certain purposes, legitimate interests may be relied on, rather than consent. You can read more about this in our Privacy and Cookie Policy.